Location: Most
(50.5133°N, 13.6207°E)
Time: 09:45:33
(UTC+02:00)

ISS - Pass Details

Date: 20 July 2018
Orbit: 402 x 408 km, 51.6° (Epoch: 17 July)

Event Time Altitude Azimuth Distance (km) Brightness Sun altitude
Rises 03:50:31 0° 286° (WNW) 2,332 -0.2 -10.7°
Reaches altitude 10° 03:52:41 10° 279° (W) 1,470 -1.3 -10.5°
Maximum altitude 03:55:47 39° 208° (SSW) 623 -3.4 -10.2°
Drops below altitude 10° 03:58:53 10° 138° (SE) 1,465 -1.1 -9.9°
Sets 04:01:02 0° 131° (SE) 2,323 0.0 -9.6°
